TimeCST,TemperatureF,Dew PointF,Humidity,Sea Level PressureIn,VisibilityMPH,Wind Direction,Wind SpeedMPH,Gust SpeedMPH,PrecipitationIn,Events,Conditions,WindDirDegrees,DateUTC
12:15 AM,-16.6,-23.8,70,30.24,10.0,NW,20.7,27.6,N/A,,Scattered Clouds,310,2013-01-21 06:15:00
12:35 AM,-16.6,-23.8,70,30.24,10.0,NW,19.6,-,N/A,,Clear,310,2013-01-21 06:35:00
12:53 AM,-16.6,-23.8,70,30.24,10.0,NW,13.8,-,N/A,,Clear,310,2013-01-21 06:53:00
1:35 AM,-18.4,-25.6,70,30.25,10.0,NW,12.7,-,N/A,,Clear,310,2013-01-21 07:35:00
1:52 AM,-18.4,-25.6,70,30.25,10.0,WNW,10.4,-,N/A,,Clear,300,2013-01-21 07:52:00
2:02 AM,-18.4,-25.6,70,30.25,10.0,WNW,10.4,-,N/A,,Clear,300,2013-01-21 08:02:00
3:21 AM,-18.4,-25.6,70,30.25,10.0,WNW,6.9,-,N/A,,Clear,290,2013-01-21 09:21:00
3:41 AM,-18.4,-25.6,70,30.24,10.0,WNW,6.9,-,N/A,,Clear,290,2013-01-21 09:41:00
4:41 AM,-18.4,-25.6,70,30.23,10.0,West,5.8,-,N/A,,Clear,270,2013-01-21 10:41:00
5:01 AM,-18.4,-25.6,70,30.23,10.0,West,5.8,-,N/A,,Clear,280,2013-01-21 11:01:00
5:21 AM,-18.4,-25.6,70,30.22,10.0,West,6.9,-,N/A,,Clear,280,2013-01-21 11:21:00
5:41 AM,-20.2,-25.6,76,30.23,10.0,West,8.1,-,N/A,,Clear,280,2013-01-21 11:41:00
8:28 AM,-20.2,-25.6,76,30.23,10.0,WNW,6.9,-,N/A,,Clear,290,2013-01-21 14:28:00
8:34 AM,-20.2,-25.6,76,30.23,10.0,West,6.9,-,N/A,,Clear,280,2013-01-21 14:34:00
8:53 AM,-20.2,-25.6,76,30.24,10.0,West,6.9,-,N/A,,Clear,280,2013-01-21 14:53:00
9:14 AM,-18.4,-25.6,70,30.24,10.0,WNW,9.2,-,N/A,,Clear,290,2013-01-21 15:14:00
9:35 AM,-18.4,-25.6,70,30.25,10.0,WNW,10.4,-,N/A,,Clear,290,2013-01-21 15:35:00
9:52 AM,-18.4,-25.6,70,30.25,10.0,WNW,10.4,16.1,N/A,,Clear,290,2013-01-21 15:52:00
10:15 AM,-16.6,-25.6,64,30.26,10.0,WNW,11.5,-,N/A,,Clear,290,2013-01-21 16:15:00
10:35 AM,-16.6,-25.6,64,30.25,10.0,WNW,9.2,17.3,N/A,,Clear,300,2013-01-21 16:35:00
10:53 AM,-16.6,-23.8,70,30.25,10.0,WNW,12.7,-,N/A,,Clear,290,2013-01-21 16:53:00
11:15 AM,-16.6,-23.8,70,30.25,10.0,WNW,15.0,-,N/A,,Clear,300,2013-01-21 17:15:00
11:35 AM,-14.8,-23.8,64,30.24,10.0,WNW,10.4,16.1,N/A,,Clear,290,2013-01-21 17:35:00
11:53 AM,-14.8,-23.8,64,30.23,10.0,WNW,8.1,17.3,N/A,,Clear,290,2013-01-21 17:53:00
12:15 PM,-14.8,-23.8,64,30.23,10.0,WNW,11.5,-,N/A,,Clear,300,2013-01-21 18:15:00
12:34 PM,-13.0,-22.0,64,30.22,10.0,WNW,11.5,-,N/A,,Clear,290,2013-01-21 18:34:00
12:53 PM,-13.0,-22.0,64,30.22,10.0,West,11.5,-,N/A,,Clear,270,2013-01-21 18:53:00
1:15 PM,-11.2,-20.2,64,30.21,10.0,WNW,10.4,-,N/A,,Clear,290,2013-01-21 19:15:00
1:35 PM,-11.2,-20.2,64,30.20,10.0,West,10.4,-,N/A,,Clear,270,2013-01-21 19:35:00
1:53 PM,-11.2,-20.2,64,30.20,10.0,West,13.8,-,N/A,,Clear,270,2013-01-21 19:53:00
2:14 PM,-11.2,-20.2,64,30.20,10.0,WNW,13.8,-,N/A,,Clear,300,2013-01-21 20:14:00
2:35 PM,-11.2,-20.2,64,30.19,7.0,West,12.7,-,N/A,,Clear,270,2013-01-21 20:35:00
2:53 PM,-11.2,-20.2,64,30.20,10.0,West,9.2,-,N/A,,Clear,280,2013-01-21 20:53:00
3:15 PM,-11.2,-20.2,64,30.20,10.0,West,10.4,17.3,N/A,,Clear,270,2013-01-21 21:15:00
3:34 PM,-11.2,-20.2,64,30.20,10.0,West,12.7,-,N/A,,Clear,280,2013-01-21 21:34:00
3:53 PM,-11.2,-20.2,64,30.20,10.0,WNW,11.5,16.1,N/A,,Clear,290,2013-01-21 21:53:00
4:15 PM,-11.2,-20.2,64,30.20,10.0,WNW,11.5,17.3,N/A,,Clear,290,2013-01-21 22:15:00
4:35 PM,-11.2,-20.2,64,30.20,10.0,West,10.4,-,N/A,,Clear,280,2013-01-21 22:35:00
4:53 PM,-11.2,-20.2,64,30.20,10.0,West,8.1,-,N/A,,Clear,280,2013-01-21 22:53:00
5:01 PM,-11.2,-20.2,64,30.20,10.0,West,8.1,-,N/A,,Clear,280,2013-01-21 23:01:00
5:35 PM,-13.0,-20.2,70,30.20,10.0,WNW,6.9,-,N/A,,Clear,290,2013-01-21 23:35:00
5:49 PM,-13.0,-20.2,70,30.20,10.0,WNW,5.8,-,N/A,,Clear,290,2013-01-21 23:49:00
6:41 PM,-14.8,-20.2,77,30.20,10.0,WNW,5.8,-,N/A,,Clear,290,2013-01-22 00:41:00
7:01 PM,-16.6,-20.2,84,30.20,10.0,WNW,4.6,-,N/A,,Clear,300,2013-01-22 01:01:00
7:41 PM,-16.6,-20.2,84,30.20,10.0,WNW,5.8,-,N/A,,Clear,290,2013-01-22 01:41:00
8:41 PM,-16.6,-20.2,84,30.20,10.0,WNW,5.8,-,N/A,,Clear,290,2013-01-22 02:41:00
9:01 PM,-16.6,-20.2,84,30.21,10.0,WNW,5.8,-,N/A,,Clear,290,2013-01-22 03:01:00
10:01 PM,-18.4,-23.8,76,30.21,10.0,WNW,4.6,-,N/A,,Clear,300,2013-01-22 04:01:00
10:38 PM,-18.4,-23.8,76,30.21,10.0,WNW,4.6,-,N/A,,Clear,290,2013-01-22 04:38:00
10:53 PM,-18.4,-23.8,76,30.21,10.0,West,4.6,-,N/A,,Clear,280,2013-01-22 04:53:00
11:15 PM,-18.4,-23.8,76,30.21,10.0,WNW,3.5,-,N/A,,Clear,290,2013-01-22 05:15:00
11:35 PM,-20.2,-25.6,76,30.22,10.0,West,5.8,-,N/A,,Clear,260,2013-01-22 05:35:00
11:53 PM,-18.4,-23.8,76,30.23,10.0,West,5.8,-,N/A,,Clear,270,2013-01-22 05:53:00